sat.trackr.live / text

‹ back to catalog

YAOGAN-30 09C

NORAD 48425 · 2021-039C

PAYLOAD ACTIVE UNKNOWN

§ Identity

Operator
Country
PRC
Launch date
2021-05-06
Launch site
XICLF
Launch vehicle
Mass (kg)
RCS (m²)

External: N2YO · Heavens-Above · Gunter

§ Orbital elements

Epoch: 2026-09-20T04:21:17.716320Z

Period
95.81 min
Inclination
34.9946°
Eccentricity
0.0001820
Mean motion
15.03048839 rev/d
Perigee alt
556.2 km
Apogee alt
558.8 km
Semi-major
6,935.6 km
B*
1.2447e-4
RAAN
171.5630°
Arg perigee
217.7272°
Mean anomaly
142.3308°
Rev number
29,385

§ Raw data

YAOGAN-30 09C1 48425U 21039C   26263.18145505  .00001682  00000+0  12447-3 0  99932 48425  34.9946 171.5630 0001820 217.7272 142.3308 15.03048839293851

JSON: /api/v1/satellites/48425 · /tle

For live sub-satellite position, see the globe view (requires WebGL).

§ Visibility from observer

Set your observer location to see the next 7 days of passes ≥ 10°. The values pass through the URL so the page stays shareable.

No JS? Fill the form by hand. The geolocation button needs JavaScript.